Retour au catalogue

DELTA 1 DEB

ActifLEO
NORAD 7092·DEBRIS·🇺🇸 United States

Lancé Nov 6, 1973 depuis Vandenberg Space Force Base

Loading…

Prochains Passages (prochaines 24 heures)

TLE

FraisSource: Space-Track

Époque: Sep 13, 2026, 08:26 UTC

1 07092U 73086CL  26256.35153679  .00000143  00000-0  46631-3 0  9993
2 07092 101.8234 210.9883 0314071 220.3857 296.7090 13.07059393513892

Suivez DELTA 1 DEB en temps réel avec AllMySat

Download on the App Store